Tracking 32523 objects as of 12-Dec-2025
HD Live streaming from Space Station
objects crossing your sky now

GALAXY 9

Track GALAXY 9 now!
GALAXY 9 is classified as:


NORAD ID: 23877
Int'l Code: 1996-033A
Perigee: 35,955.2 km
Apogee: 36,046.9 km
Inclination: 11.8 °
Period: 1,446.7 minutes
Semi major axis: 42372 km
RCS: 8.797 m2 (large)
Launch date: May 24, 1996
Source: United States (US)
Launch site: AIR FORCE EASTERN TEST RANGE (AFETR)

Voice and vision communication; 24 C-band; North America, Caribbean.
Your satellite tracking list
Your tracking list is empty




NASA's NSSDC Master Catalog

Two Line Element Set (TLE):
1 23877U 96033A   25346.08221271 -.00000171  00000-0  00000-0 0  9991
2 23877  11.7718  33.8986 0010818 181.1386 355.9062  0.99536878 44493
Source of the keplerian elements: AFSPC